STARLINK-35973

Last updated on Wed Dec 31 2025 00:02:06 GMT+0000 (Coordinated Universal Time)

1 66632U 25271R 25364.55698400 .00076406 00000+0 19024-2 0 9997 2 66632 53.1602 103.0761 0001489 49.8976 310.2160 15.39597734 6917
UTC large
Height (km)
Speed (km/s)
/
Latitude / Longitude
Inclination (degrees)
Orbital Period (minutes)
Azimuth
Elevation
Range (km)
Doppler Factor

Next 0 passes for location: London (51.5072 / 0.1276)

Sorry there are no passes over London.